www.pogodaiklimat.ru
Время
и дата
17:57 26.11
18:57 26.11
19:57 26.11
20:57 26.11
21:57 26.11
22:57 26.11
23:57 26.11
00:57 27.11
01:57 27.11
02:57 27.11
03:57 27.11
04:57 27.11
05:57 27.11
06:57 27.11
07:57 27.11
08:57 27.11
09:57 27.11
10:57 27.11
11:57 27.11
12:57 27.11
13:57 27.11
14:57 27.11
15:57 27.11
16:57 27.11
17:57 27.11
18:57 27.11
19:57 27.11
20:57 27.11
21:57 27.11
22:57 27.11
23:57 27.11
00:57 28.11
01:57 28.11
02:57 28.11
03:57 28.11
04:57 28.11
05:57 28.11
06:57 28.11
07:57 28.11
08:57 28.11
09:57 28.11
10:57 28.11
11:57 28.11
12:57 28.11
13:57 28.11
14:57 28.11
15:57 28.11
16:57 28.11
Ветер
(напр.,м/с)
Видим. Явления Облачность Т
(С)
Тd
(С)
f
(%)
Тe
(С)
Тes
(С)
Комфортность P
(гПа)
Po
(гПа)
Тmin
(С)
Tmax
(С)
R
(мм)
R24
(мм)
S
(см)
С 2 16 км ясно +21.7 -5.6 16 +20 +21 1016.2 1008.6
С 1 16 км ясно +20.0 -6.7 16 +20 +20 1016.4 1008.9
СЗ 1 16 км ясно +18.9 -7.8 16 +19 +19 1017.1 1009.6
штиль 0 16 км ясно +16.1 -6.1 21 +16 +16 1017.4 1009.9
З 1 16 км ясно +14.4 -4.4 27 +14 +14 1017.5 1009.9
штиль 0 16 км ясно +13.9 -6.1 24 +14 +14 1017.4 1009.9 +13.9 +23.3
штиль 0 16 км ясно +13.9 -6.1 24 +14 +14 1017.4 1009.9
штиль 0 16 км ясно +12.2 -4.4 31 +12 +12 1017.0 1009.6
С 1 16 км ясно +11.1 -3.9 35 +10 +10 1016.6 1009.2
В 1 16 км ясно +13.3 -10.0 19 +13 +13 1016.7 1009.2
штиль 0 16 км ясно +11.7 -9.4 22 +12 +12 1016.7 1009.2
ЮЗ 1 16 км ясно +10.0 -5.6 33 +9 +9 1017.1 1009.6 +10.0 +15.0
штиль 0 16 км ясно +10.6 -5.0 33 +11 +11 1017.5 1009.9
штиль 0 16 км ясно +11.7 -9.4 22 +12 +12 1018.1 1010.6
С 1 16 км ясно +12.2 -10.0 20 +12 +12 1018.5 1010.9
СВ 1 16 км ясно +16.1 -11.7 14 +16 +16 1019.1 1011.6
СВ 1 16 км ясно +18.3 -10.0 14 +18 +20 1019.8 1012.3
СВ 1 16 км ясно +20.0 -7.2 15 +20 +24 1019.9 1012.3 +9.4 +20.0
С 1 16 км ясно +22.8 -8.3 12 +21 +26 комфорт 1019.2 1011.6
нст 1 16 км ясно +24.4 -8.9 10 +22 +28 комфорт 1018.4 1010.9
С 2 16 км ясно +26.7 -10.6 8 +23 +27 комфорт 1017.6 1010.2
нст 1 16 км ясно +26.1 -10.0 8 +23 +29 комфорт 1017.2 1009.9
штиль 0 16 км ясно +26.7 -11.1 7 +23 +29 комфорт 1017.2 1009.6
С 1 16 км ясно +25.6 -9.4 9 +23 +25 комфорт 1017.3 1009.9 +20.0 +26.7
СЗ 1 16 км ясно +22.8 -9.4 11 +21 +21 комфорт 1017.8 1010.2
З 1 16 км ясно +19.4 -8.3 15 +20 +20 1018.4 1010.9
штиль 0 16 км ясно +17.8 -5.6 20 +18 +18 1018.7 1011.3
штиль 0 16 км ясно +16.1 -6.7 20 +16 +16 1019.1 1011.6
штиль 0 16 км ясно +15.0 -6.1 23 +15 +15 1019.6 1011.9
штиль 0 16 км ясно +13.3 -2.8 33 +13 +13 1020.2 1012.6 +13.3 +25.6
В 1 16 км ясно +13.9 -6.1 24 +14 +14 1020.5 1012.9
штиль 0 16 км ясно +12.8 -3.3 32 +13 +13 1020.4 1012.9
СВ 1 16 км ясно +12.2 -5.6 28 +12 +12 1020.3 1012.9
СВ 1 16 км ясно +11.1 -6.7 28 +11 +11 1020.3 1012.9
штиль 0 16 км ясно +11.7 -5.6 29 +12 +12 1020.4 1012.9
СВ 1 16 км ясно +10.6 -5.6 32 +9 +9 1020.4 1012.9 +10.6 +13.9
С 1 16 км ясно +11.1 -5.6 31 +10 +10 1020.9 1013.3
СВ 1 16 км ясно +11.1 -6.7 28 +11 +11 1021.3 1013.6
СВ 2 16 км ясно +12.2 -8.3 23 +11 +11 1021.7 1014.3
СВ 3 16 км ясно +16.1 -10.0 16 +15 +15 1022.2 1014.6
С 2 16 км ясно +18.3 -6.1 18 +18 +19 1022.7 1015.0
С 2 16 км ясно +20.6 -8.3 13 +20 +22 1022.6 1015.0 +10.0 +20.6
СВ 2 16 км ясно +22.8 -6.7 13 +21 +24 комфорт 1022.0 1014.6
С 2 16 км ясно +24.4 -8.3 11 +22 +27 комфорт 1021.0 1013.6
С 2 16 км ясно +25.6 -7.8 10 +23 +28 комфорт 1020.0 1012.6
СВ 2 16 км ясно +26.1 -7.8 10 +23 +27 комфорт 1019.5 1011.9
С 1 16 км ясно +26.7 -6.7 11 +24 +28 комфорт 1019.0 1011.6
С 2 16 км ясно +25.6 -7.2 11 +23 +24 комфорт 1018.8 1011.3 +20.6 +26.7
Местоположение метеостанции Yuma International Airport: широта 32.6594 долгота -114.5931 высота над уровнем моря 63 м.
В архиве по умолчанию представлена погода в Юме за последние 1-2 суток. Обновление информации о фактической погоде в базе происходит ежечасно! Архивные данные за месяц целиком и за предыдущие месяцы Вы можете получить, выбрав интересующий диапазон дат из раскрывающегося списка и нажав кнопку "Ввод!".
Внимание! Архив погоды МЕТАР в базе сайта по станциям, не включенным в климатический монитор, хранится не более 60 дней. Нет смысла пытаться выбрать более раннюю дату.
*Определитесь, кто Вы:
Внимание! Время в таблицах - местное (без учета летнего времени). Для получения всемирного времени необходимо вычесть поправку, которая равна -7 ч.
Смотрите также архив погоды в соседних городах и на ближайших метеорологических станциях:
Партнеры нашего сайта:      
Пояснения к столбцам:
  • Ветер - указаны скорость ветра в м/с - средняя за 10 мин, порывы в срок и между сроками (в фигурных скобках) и направление, откуда дует ветер: С - северный,
  • СВ - северо-восточный, В - восточный, ЮВ - юго-восточный, Ю - южный, ЮЗ - юго-западный, З - западный, СЗ - северо-западный.
  • Видимость - горизонтальная дальность видимости в метрах или километрах. При видимости от 1 до 10 км при отсутствии осадков обычно наблюдается дымка, при ухудшении видимости до 1 км и менее - туман. В сухую погоду видимость может ухудшаться дымом, пылью или мглою.
  • Явления - указаны атмосферные явления, наблюдавшиеся в срок или в последний час перед сроком; фигурными скобками обозначены явления, наблюдавшиеся между сроками (за 1-3 часа до срока); квадратными скобками обозначены град или гололедные отложения с указанием их диаметра в мм.
  • Облачность - указаны через наклонную черту общая и нижняя облачность в баллах и высота нижней границы облаков в метрах; квадратными скобками обозначены формы облаков: Ci - перистые, Cs - перисто-слоистые, Cc - перисто-кучевые, Ac - высококучевые, As - высокослоистые, Sc - слоисто-кучевые, Ns - слоисто-дождевые, Cu - кучевые, Cb - кучево-дождевые. Подробнее классификацию облаков см. в Атласе облаков (PDF).
  • T - Температура воздуха - температура, измеренная на высоте 2 м над землей.
  • Td - Температура точки росы - температура, при понижении до которой содержащийся в воздухе водяной пар достигнет насыщения.
  • f - Относительная влажность воздуха - влажноcть воздуха, измеренная на высоте 2 м над землей.
  • Te - Эффективная температура - температура, которую ощущает одетый по сезону человек в тени. Характеристика душности погоды. При расчете учитывается влияние влажности воздуха и скорости ветра на теплоощущения человека.
  • Tes - Эффективная температура на солнце - температура, которую ощущает человек, с поправкой на солнечный нагрев. Характеристика знойности погоды. Зависит от высоты солнца над горизонтом, облачности и скорости ветра. Ночью, в пасмурную погоду, а также при ветре 12 м/с и более поправка равна нулю.
  • P - Атмосферное давление - приведенное к уровню моря атмосферное давление.
  • Po - Атмосферное давление - измеренное на уровне метеостанции атмосферное давление.
  • Tmin - Минимальная температура - минимум температуры воздуха на высоте 2 м над землей.
  • Tmax - Максимальная температура - максимум температуры воздуха на высоте 2 м над землей.
  • R - Количество осадков - Количество выпавших осадков за период времени, мм. При наведении курсора мыши на число - период времени, за который выпало указанное количество осадков.
  • R24 - Количество осадков - Количество выпавших осадков за 24 часа, мм.
  • S - Снежный покров - Высота снежного покрова, см. При наведении курсора мыши на число - состояние снежного покрова и степень покрытия местности в баллах.